Flag for U.S.A. Weather past 2 weeks in Mansfield, Texas, U.S.A.

Now
91 °F

Partly sunny.


Feels Like: 92 °F
Forecast: 71 / 92 °F
Wind: 12 mph from Southeast

Location: Burleson-Rendon

Current Time: Sep 2, 2015 at 5:03:36 PM

Latest Report: Sep 2, 2015 at 3:48 PM


Visibility: 10 mi

Pressure: 29.99 "Hg

Humidity: 38%

Dew point: 63 °F

Location of MansfieldLocation

Historic Weather in Mansfield — Graph

°F

Mansfield temperature yesterday

Maximum temperature yesterday: 93 °F (at 2:49 PM)
Minimum temperature yesterday: 71 °F (at 6:35 AM)
Average temperature yesterday: 80 °F

Past Weeks' High & Low Weather Summary

 TemperatureHumidityPressure
High99 °F (Aug 18, 4:50 PM)95% (Aug 21, 3:55 AM)30.17 "Hg (Aug 21, 3:55 AM)
Low63 °F (Aug 20, 6:49 AM)27% (Aug 30, 3:47 PM)29.72 "Hg (Aug 18, 6:50 PM)
Average79 °F68%30.00 "Hg
* Reported Aug 18 3:50 PM — Sep 2 3:48 PM, Mansfield, Weather by CustomWeather, © 2015

Note: Actual official high and low records may vary slightly from our data, if they occured in-between our weather recording intervals... More about our weather records

Advertising

Mansfield weather history for previous 24 hours

 ConditionsComfort  
Time TempWeatherWind HumidityBarometerVisibility
3:48 PM
Wed, Sep 2
91 °FPartly sunny.12 mph38%29.99 "Hg10 mi
2:50 PM93 °FPartly sunny.14 mph36%30.02 "Hg10 mi
1:52 PM91 °FScattered clouds.8 mph41%30.04 "Hg10 mi
12:49 PM90 °FPassing clouds.12 mph43%30.06 "Hg10 mi
11:48 AM88 °FSunny.7 mph46%30.08 "Hg10 mi
10:48 AM84 °FSunny.6 mph55%30.09 "Hg10 mi
9:53 AM81 °FSunny.8 mph66%30.10 "Hg10 mi
8:52 AM75 °FSunny.7 mph83%30.10 "Hg7 mi
7:52 AM72 °FClear.No wind94%30.09 "Hg7 mi
6:50 AM70 °FClear.3 mph94%30.07 "Hg7 mi
6:35 AM71 °FClear.3 mph91%30.06 "Hg10 mi
6:15 AM71 °FClear.3 mph90%30.06 "Hg10 mi
5:55 AM71 °FClear.5 mph90%30.06 "Hg10 mi
5:35 AM71 °FClear.3 mph90%30.06 "Hg10 mi
5:15 AM71 °FClear.3 mph87%30.06 "Hg10 mi
4:55 AM71 °FClear.3 mph86%30.05 "Hg10 mi
4:35 AM72 °FClear.3 mph85%30.06 "Hg10 mi
4:15 AM73 °FClear.3 mph83%30.06 "Hg10 mi
3:55 AM73 °FClear.5 mph81%30.06 "Hg10 mi
3:35 AM74 °FClear.7 mph79%30.06 "Hg10 mi
3:15 AM74 °FClear.7 mph78%30.06 "Hg10 mi
2:55 AM75 °FClear.7 mph76%30.06 "Hg10 mi
2:35 AM75 °FClear.8 mph75%30.06 "Hg10 mi
2:15 AM75 °FClear.7 mph72%30.06 "Hg10 mi
1:55 AM75 °FClear.6 mph72%30.07 "Hg10 mi
1:35 AM77 °FClear.8 mph70%30.06 "Hg10 mi
1:15 AM77 °FClear.7 mph70%30.06 "Hg10 mi
12:55 AM77 °FClear.6 mph70%30.07 "Hg10 mi
12:35 AM78 °FClear.6 mph68%30.06 "Hg10 mi
12:15 AM78 °FClear.7 mph65%30.06 "Hg10 mi
11:55 PM
Tue, Sep 1
79 °FClear.7 mph65%30.06 "Hg10 mi
11:35 PM79 °FClear.7 mph66%30.05 "Hg10 mi
11:15 PM80 °FClear.8 mph64%30.05 "Hg10 mi
10:55 PM81 °FClear.8 mph62%30.04 "Hg10 mi
10:15 PM81 °FClear.8 mph63%30.04 "Hg10 mi
9:55 PM81 °FClear.6 mph62%30.04 "Hg10 mi
9:35 PM82 °FPassing clouds.6 mph59%30.03 "Hg10 mi
9:15 PM84 °FPassing clouds.6 mph56%30.02 "Hg10 mi
8:55 PM85 °FPassing clouds.8 mph53%30.02 "Hg10 mi
8:35 PM86 °FScattered clouds.7 mph50%30.00 "Hg10 mi
8:15 PM86 °FPartly sunny.9 mph48%29.99 "Hg10 mi
5:49 PM93 °FScattered clouds.9 mph36%29.97 "Hg10 mi
Weather by CustomWeather, © 2015

See weather overviewHow to use our weather pages